User: anonymous
Location: NJAA Observatory
(40.6819°N, 74.8979°W)
Time: 11:37:40
(UTC-04:00)
Language:

Iridium 4 - Orbit

View from above orbital plane
View from above orbital plane
View from above satellite
View from above satellite

Ground track
Ground track

The orbit data is extracted from the following two-line orbital elements,

1 24796U 97020E   14202.15541579  .00000105  00000-0  30060-4 0  9339
2 24796 086.3932 042.3698 0002113 101.8132 037.1103 14.34664524901000
Epoch (UTC): 21 July 2014 03:43:47
Eccentricity: 0.0002113
inclination: 86.3932°
perigee height: 774 km
apogee height: 777 km
right ascension of ascending node: 42.3698°
argument of perigee: 101.8132°
revolutions per day: 14.34664524
mean anomaly at epoch: 37.1103°
orbit number at epoch: 90100

The dashed part of the orbit path shows where the satellite is in the earth's shadow,  

DLR